Hourly Weather Golab

Today, 18 May, Tuesday

Time Temperature Precipitation Wind Pressure Humidity
00:00 +13°C° 0 mm 2 mps 741 mmHg 75%
01:00 +13°C° 0 mm 1 mps 741 mmHg 76%
02:00 +13°C° 0 mm 1 mps 741 mmHg 78%
03:00 +13°C° 0 mm 2 mps 741 mmHg 79%
04:00 +13°C° 0 mm 2 mps 741 mmHg 81%
05:00 +12°C° 0 mm 3 mps 741 mmHg 83%
06:00 +12°C° 0 mm 4 mps 742 mmHg 84%
07:00 +12°C° 0 mm 5 mps 742 mmHg 86%
08:00 +13°C° 0 mm 5 mps 742 mmHg 85%
09:00 +13°C° 0 mm 6 mps 742 mmHg 83%
10:00 +13°C° 0 mm 6 mps 743 mmHg 82%
11:00 +14°C° 0 mm 6 mps 743 mmHg 79%
12:00 +14°C° 0 mm 7 mps 743 mmHg 75%
13:00 +15°C° 0 mm 7 mps 743 mmHg 72%
14:00 +15°C° 0 mm 7 mps 743 mmHg 72%
15:00 +15°C° 0 mm 6 mps 743 mmHg 72%
16:00 +15°C° 0 mm 6 mps 743 mmHg 73%
17:00 +14°C° 0 mm 6 mps 743 mmHg 75%
18:00 +13°C° 0 mm 6 mps 744 mmHg 77%
19:00 +13°C° 0 mm 5 mps 744 mmHg 80%
20:00 +12°C° 0 mm 5 mps 744 mmHg 83%
21:00 +12°C° 0 mm 5 mps 744 mmHg 86%
22:00 +10°C° 0 mm 5 mps 745 mmHg 89%
23:00 +10°C° 0 mm 5 mps 745 mmHg 91%

Tomorrow, 19 May, Wednesday

Time Temperature Precipitation Wind Pressure Humidity
00:00 +9°C° 0 mm 5 mps 745 mmHg 92%
01:00 +10°C° 0 mm 4 mps 745 mmHg 94%
02:00 +8°C° 0 mm 4 mps 745 mmHg 94%
03:00 +8°C° 0 mm 5 mps 746 mmHg 94%
04:00 +8°C° 0 mm 5 mps 746 mmHg 95%
05:00 +9°C° 0 mm 5 mps 746 mmHg 91%
06:00 +10°C° 0 mm 5 mps 747 mmHg 88%
07:00 +12°C° 0 mm 4 mps 747 mmHg 84%
08:00 +12°C° 0 mm 5 mps 747 mmHg 81%
09:00 +13°C° 0 mm 5 mps 747 mmHg 77%
10:00 +13°C° 0 mm 5 mps 747 mmHg 74%
11:00 +14°C° 0 mm 5 mps 747 mmHg 71%
12:00 +14°C° 0 mm 5 mps 748 mmHg 68%
13:00 +15°C° 0 mm 5 mps 748 mmHg 65%
14:00 +15°C° 0 mm 4 mps 748 mmHg 63%
15:00 +17°C° 0 mm 4 mps 748 mmHg 62%
16:00 +17°C° 0 mm 4 mps 748 mmHg 60%
17:00 +16°C° 0.1 mm 3 mps 748 mmHg 67%
18:00 +13°C° 0.1 mm 3 mps 748 mmHg 74%
19:00 +13°C° 0.1 mm 2 mps 748 mmHg 80%
20:00 +12°C° 0 mm 2 mps 748 mmHg 84%
21:00 +10°C° 0 mm 2 mps 748 mmHg 87%
22:00 +9°C° 0 mm 2 mps 748 mmHg 90%
23:00 +9°C° 0 mm 2 mps 748 mmHg 92%

Day after tomorrow, 20 May, Thursday

Time Temperature Precipitation Wind Pressure Humidity
00:00 +9°C° 0 mm 2 mps 748 mmHg 94%
01:00 +8°C° 0 mm 3 mps 748 mmHg 95%
02:00 +8°C° 0 mm 3 mps 749 mmHg 93%
03:00 +8°C° 0 mm 3 mps 749 mmHg 90%
04:00 +7°C° 0 mm 3 mps 749 mmHg 88%
05:00 +7°C° 0 mm 4 mps 749 mmHg 82%
06:00 +8°C° 0 mm 4 mps 750 mmHg 77%
07:00 +10°C° 0 mm 4 mps 750 mmHg 71%
08:00 +10°C° 0 mm 5 mps 750 mmHg 66%
09:00 +12°C° 0 mm 5 mps 750 mmHg 62%
10:00 +14°C° 0 mm 5 mps 750 mmHg 57%
11:00 +14°C° 0 mm 5 mps 750 mmHg 55%
12:00 +15°C° 0 mm 5 mps 750 mmHg 53%
13:00 +16°C° 0 mm 5 mps 750 mmHg 52%
14:00 +15°C° 0 mm 5 mps 750 mmHg 55%
15:00 +15°C° 0 mm 5 mps 750 mmHg 58%
16:00 +15°C° 0 mm 5 mps 750 mmHg 61%
17:00 +14°C° 0 mm 4 mps 750 mmHg 65%
18:00 +13°C° 0 mm 4 mps 750 mmHg 68%
19:00 +12°C° 0 mm 4 mps 750 mmHg 72%
20:00 +11°C° 0 mm 4 mps 750 mmHg 76%
21:00 +10°C° 0 mm 3 mps 751 mmHg 81%
22:00 +9°C° 0 mm 3 mps 751 mmHg 85%
23:00 +9°C° 0 mm 3 mps 752 mmHg 88%

21 May, Friday

Time Temperature Precipitation Wind Pressure Humidity
00:00 +8°C° 0 mm 3 mps 752 mmHg 90%
01:00 +7°C° 0 mm 3 mps 752 mmHg 93%
02:00 +7°C° 0 mm 3 mps 752 mmHg 94%
03:00 +5°C° 0 mm 3 mps 753 mmHg 94%
04:00 +5°C° 0 mm 3 mps 753 mmHg 95%
05:00 +7°C° 0 mm 3 mps 753 mmHg 86%
06:00 +8°C° 0 mm 4 mps 753 mmHg 77%
07:00 +10°C° 0 mm 4 mps 754 mmHg 68%
08:00 +10°C° 0 mm 5 mps 753 mmHg 63%
09:00 +12°C° 0 mm 5 mps 753 mmHg 58%
10:00 +14°C° 0 mm 5 mps 753 mmHg 53%
11:00 +14°C° 0 mm 5 mps 753 mmHg 52%
12:00 +14°C° 0 mm 5 mps 753 mmHg 51%
13:00 +14°C° 0 mm 5 mps 752 mmHg 50%
14:00 +14°C° 0 mm 4 mps 752 mmHg 53%
15:00 +14°C° 0 mm 3 mps 752 mmHg 57%
16:00 +14°C° 0 mm 3 mps 752 mmHg 60%
17:00 +14°C° 0 mm 2 mps 752 mmHg 64%
18:00 +13°C° 0 mm 1 mps 752 mmHg 68%
19:00 +11°C° 0 mm 0 mps 751 mmHg 72%
20:00 +11°C° 0 mm 1 mps 751 mmHg 73%
21:00 +10°C° 0 mm 2 mps 751 mmHg 75%
22:00 +9°C° 0 mm 2 mps 751 mmHg 76%
23:00 +9°C° 0 mm 2 mps 751 mmHg 78%

22 May, Saturday

Time Temperature Precipitation Wind Pressure Humidity
00:00 +9°C° 0 mm 3 mps 751 mmHg 79%
01:00 +8°C° 0 mm 3 mps 750 mmHg 81%
02:00 +8°C° 0 mm 3 mps 750 mmHg 81%
03:00 +8°C° 0 mm 3 mps 750 mmHg 81%
04:00 +8°C° 0 mm 3 mps 750 mmHg 82%
05:00 +10°C° 0 mm 3 mps 749 mmHg 77%
06:00 +11°C° 0 mm 4 mps 749 mmHg 72%
07:00 +13°C° 0 mm 5 mps 749 mmHg 68%
08:00 +15°C° 0 mm 5 mps 749 mmHg 64%
09:00 +16°C° 0 mm 5 mps 749 mmHg 59%
10:00 +17°C° 0 mm 5 mps 748 mmHg 55%
11:00 +19°C° 0 mm 5 mps 748 mmHg 53%
12:00 +20°C° 0 mm 5 mps 748 mmHg 50%
13:00 +20°C° 0 mm 5 mps 748 mmHg 48%
14:00 +20°C° 0 mm 5 mps 748 mmHg 50%
15:00 +20°C° 0 mm 4 mps 747 mmHg 52%
16:00 +20°C° 0 mm 3 mps 747 mmHg 55%
17:00 +18°C° 0.3 mm 3 mps 747 mmHg 66%
18:00 +16°C° 0.3 mm 3 mps 747 mmHg 77%
19:00 +13°C° 0.3 mm 4 mps 748 mmHg 88%
20:00 +12°C° 0.1 mm 3 mps 748 mmHg 90%
21:00 +12°C° 0.1 mm 2 mps 748 mmHg 92%
22:00 +12°C° 0.1 mm 1 mps 748 mmHg 95%
23:00 +12°C° 0.3 mm 1 mps 748 mmHg 95%

23 May, Sunday

Time Temperature Precipitation Wind Pressure Humidity
00:00 +12°C° 0.3 mm 1 mps 747 mmHg 95%
01:00 +12°C° 0.3 mm 1 mps 747 mmHg 95%
02:00 +12°C° 1.8 mm 2 mps 747 mmHg 95%
03:00 +10°C° 1.8 mm 4 mps 747 mmHg 95%
04:00 +9°C° 1.8 mm 5 mps 747 mmHg 94%
05:00 +10°C° 0.4 mm 4 mps 748 mmHg 92%
06:00 +11°C° 0.4 mm 3 mps 748 mmHg 89%
07:00 +12°C° 0.4 mm 2 mps 749 mmHg 86%
08:00 +14°C° 0 mm 2 mps 749 mmHg 76%
09:00 +14°C° 0 mm 3 mps 749 mmHg 66%
10:00 +17°C° 0 mm 3 mps 749 mmHg 55%
11:00 +17°C° 0 mm 3 mps 749 mmHg 52%
12:00 +18°C° 0 mm 2 mps 749 mmHg 48%
13:00 +19°C° 0 mm 2 mps 749 mmHg 45%
14:00 +18°C° 0 mm 2 mps 749 mmHg 50%
15:00 +19°C° 0 mm 1 mps 749 mmHg 55%
16:00 +18°C° 0 mm 1 mps 749 mmHg 60%
17:00 +16°C° 0 mm 1 mps 749 mmHg 63%
18:00 +15°C° 0 mm 1 mps 750 mmHg 67%
19:00 +14°C° 0 mm 1 mps 750 mmHg 71%
20:00 +14°C° 0 mm 1 mps 750 mmHg 72%
21:00 +13°C° 0 mm 1 mps 750 mmHg 73%
22:00 +12°C° 0 mm 1 mps 751 mmHg 74%
23:00 +12°C° 0 mm 1 mps 751 mmHg 77%
Show more